Kuiper-00031

operational
NORAD ID: 63744 Int'l Des: 2025-088 Owner: KUIP Country: US Constellation: kuiper
LEOCIRCULAR

Über Kuiper-00031

Beschreibung wird geladen...

Live-Position

3D-Globus wird geladen...

Nächste Überflüge

Höhenverlauf

Altitude vs Time

uPlot chart will show altitude changes over time

Zweizeiliger Elementsatz

1 63744U 25088W 25354.51376119 .00002298 00000-0 33027-3 0 9998
2 63744 51.9012 86.7261 0003726 204.8471 155.2313 14.79955489 35816
Epoch: 20. Dez. 2025 • Age: 13 hours

Aktueller Status

Höhe 634.0 km
Geschwindigkeit 7.54 km/s
Subsatellitenpunkt 32.98°N, 2.44°E
Startdatum 28. Apr. 2025
Alter 0.6 years
Typ internet

Technische Details

Klassifizierung Payload
Masse 490.00 kg
Trockenmasse 490.00 kg
Gesamtmasse 490.00 kg
Länge 1.80 m
Durchmesser 0.70 m
Spannweite 5.00 m
Form Box + 2 pan
Hersteller KUIP
Bus-Typ Kuiper
Phasenstatus In Orbit
Besitzer/Staat KUIP/US

Große Konstellationen

Loading constellations...